Location: ?ern� Novina
(50.6762°N, 14.8696°E)
Time: 02:50:47
(UTC+00:00)

Cosmos 1354 Rocket - Pass Details

Date: 03 March 2021
Orbit: 765 x 782 km, 74.0° (Epoch: 13 April)

Event Time Altitude Azimuth Distance (km) Brightness Sun altitude
Rises 18:18:22 0° 333° (NNW) 3,254 7.8 -15.5°
Reaches altitude 10° 18:20:46 10° 331° (NNW) 2,320 7.0 -15.8°
Maximum altitude 18:25:58 65° 251° (WSW) 846 4.4 -16.7°
Drops below altitude 10° 18:31:07 10° 170° (S) 2,298 6.3 -17.5°
Sets 18:33:30 0° 168° (SSE) 3,219 7.0 -17.8°
Enters shadow 18:33:33 - 168° (SSE) 3,237 7.0 -17.8°
